Theta_e
348 350 353 357 356 356 356 356 355 356 356 355 355 355 355 355 354 355 354 354 354 354 354 354 354 354 354 355 355 354 354 354 353 353 353 353 354 354 353 354 354 354 354 354 354 354 354 353 353 353 352 352 352 353 352 352 352 351 350 350 350 351 351 351 352 352 351 350 350 351 350 350 349 349 347 345 343 343 343 343 343 343 343 342 344
346 352 354 355 356 356 355 356 355 355 355 355 355 354 354 354 354 354 354 354 354 354 354 354 354 354 354 355 355 354 354 354 354 354 354 354 354 354 354 354 354 354 354 354 354 353 353 353 353 352 352 352 352 351 351 351 350 349 349 349 348 348 349 349 350 350 350 350 350 350 349 349 348 347 346 346 345 344 342 341 341 341 342 341 342
349 352 353 355 357 356 356 355 355 355 355 355 354 354 354 354 354 354 354 354 354 353 353 354 354 354 354 355 355 354 354 354 354 354 354 354 354 354 354 354 354 354 353 353 353 353 353 353 352 352 352 351 350 350 350 349 350 349 349 349 350 349 349 349 348 348 349 350 349 349 349 348 347 344 345 345 346 344 344 343 343 343 340 342 342
348 351 353 355 357 356 356 355 355 355 355 354 353 353 353 354 353 354 354 354 354 354 353 353 353 354 354 354 355 354 354 355 355 355 355 354 354 354 354 353 353 353 353 353 353 352 352 352 351 352 351 350 349 349 349 349 348 348 349 348 349 349 349 349 349 348 348 348 347 347 347 341 345 346 346 345 345 344 343 343 342 342 342 342 342
349 351 352 354 354 355 355 355 355 355 355 354 353 353 353 354 354 353 354 354 354 353 354 354 354 354 354 354 355 355 355 355 355 354 354 354 353 353 353 353 353 353 353 353 352 352 351 352 351 350 349 349 349 349 348 349 349 348 347 347 347 348 349 349 346 346 346 347 347 345 340 341 342 345 345 345 345 344 342 341 341 341 341 342 342
349 351 352 353 352 353 355 355 355 355 354 354 353 353 353 353 354 354 354 354 353 353 353 354 354 354 354 355 355 355 355 355 354 354 354 354 354 353 353 353 353 353 353 353 352 352 351 350 350 350 350 349 349 349 349 350 350 350 350 348 348 349 348 348 348 346 346 346 346 342 339 341 344 344 345 345 345 345 344 344 344 343 342 341 341
349 351 352 353 352 353 355 355 355 354 354 354 353 352 353 353 353 353 354 354 353 354 353 354 354 354 354 355 355 354 354 354 354 354 353 354 354 353 353 353 353 353 353 353 352 352 351 350 350 349 349 350 350 350 350 350 350 349 349 349 348 347 348 347 348 348 347 345 339 339 339 341 343 342 345 345 345 345 344 341 341 341 340 339 339
350 350 351 352 351 354 356 355 355 354 354 354 353 353 353 353 353 353 354 353 353 353 353 353 354 354 354 354 354 354 354 354 354 354 354 354 354 354 353 353 352 352 352 352 351 351 350 350 349 350 351 350 350 350 350 350 350 349 349 349 349 349 349 348 348 348 349 341 339 339 339 341 342 339 345 345 345 344 344 341 341 342 341 342 341
348 350 351 351 351 355 355 355 354 354 354 353 352 353 353 352 353 353 353 354 353 353 353 353 354 354 354 354 354 354 354 354 354 354 354 354 354 354 353 352 352 352 351 351 351 350 350 351 351 351 350 350 349 349 349 349 349 348 348 348 348 349 350 350 350 351 351 345 340 338 339 341 341 339 347 345 344 344 344 344 343 342 341 341 341
348 350 351 350 350 355 355 355 354 354 354 353 353 353 353 352 352 353 353 353 353 353 353 353 354 354 354 354 354 354 354 354 354 354 353 353 353 353 353 352 352 352 351 351 350 350 350 350 351 350 349 349 349 348 348 348 348 348 348 347 349 349 351 352 351 353 348 347 341 338 339 344 339 338 344 345 345 344 344 343 343 341 341 340 340
348 350 351 350 350 355 355 354 354 354 353 353 353 353 352 352 353 352 353 353 353 353 353 353 354 354 354 354 354 354 354 354 354 353 353 353 353 352 352 352 353 351 350 350 350 350 350 350 349 349 349 348 348 348 348 348 348 348 348 348 348 349 351 349 347 340 342 345 343 338 343 344 341 338 346 346 344 344 344 342 341 342 342 342 341
348 350 350 349 354 355 354 353 354 354 353 353 353 353 352 353 352 353 353 353 353 354 354 353 353 354 354 354 354 354 354 353 353 353 353 353 352 352 352 351 351 352 351 349 349 351 351 349 349 348 348 348 348 348 347 347 348 348 349 349 348 350 350 346 338 337 340 342 341 339 342 343 340 339 347 346 344 343 344 344 343 343 342 341 341
347 349 349 349 351 355 354 353 354 353 353 354 353 353 353 352 352 353 353 353 353 353 353 354 354 354 353 354 353 354 353 353 353 353 352 352 352 352 351 350 352 353 353 353 352 351 350 349 348 348 348 348 347 347 347 347 348 348 348 348 348 350 347 344 336 337 337 337 339 341 340 341 341 343 347 346 344 344 345 345 343 343 342 341 341
346 348 349 350 350 355 354 354 353 353 353 353 353 353 352 352 352 352 353 353 353 353 353 354 354 354 354 353 353 353 353 353 353 352 352 352 352 351 351 352 352 352 352 351 350 350 349 348 348 348 348 348 347 347 347 348 348 349 349 348 348 350 346 342 340 338 339 338 342 339 340 343 340 343 347 346 346 345 346 345 344 343 342 342 341
346 348 348 349 350 351 355 354 353 353 353 353 353 353 352 352 352 352 353 353 353 353 354 354 354 353 353 353 353 353 353 353 353 352 352 352 351 351 351 352 352 351 351 350 350 349 348 348 347 347 347 347 347 347 347 348 349 349 348 348 348 349 346 336 336 337 339 341 341 343 340 341 343 344 347 347 346 346 345 345 344 343 343 342 341
348 347 349 349 349 350 352 354 354 354 353 353 353 353 352 352 352 353 353 353 353 353 353 353 353 353 353 353 353 353 353 353 352 352 352 352 351 351 351 351 351 350 350 349 349 348 348 348 347 346 346 347 347 347 348 348 348 348 348 347 348 349 345 342 336 335 335 339 340 342 339 341 344 344 347 347 347 347 346 346 345 344 343 342 341
348 349 348 348 348 349 351 352 352 353 354 353 353 352 352 352 352 352 353 353 353 353 353 353 353 353 353 353 353 353 352 352 352 352 352 351 351 351 351 350 350 349 349 348 348 347 347 348 347 346 346 346 347 347 348 348 349 348 348 347 347 348 344 340 334 334 335 338 339 340 339 340 344 345 348 348 347 347 347 347 345 344 344 343 342
348 349 347 347 347 348 350 350 351 351 350 352 353 352 352 352 352 352 353 353 353 353 353 353 353 353 353 353 352 352 352 351 351 351 351 351 351 350 350 349 349 348 348 347 346 346 347 347 347 346 346 345 346 347 348 348 348 348 346 346 347 347 342 338 333 336 334 343 339 340 339 342 344 346 348 349 349 348 347 347 346 345 344 343 342
348 348 348 347 347 348 349 350 350 349 349 349 350 351 352 352 352 352 352 352 352 353 352 352 353 353 353 352 352 351 351 351 350 350 350 350 350 350 349 348 348 346 346 346 345 346 346 346 345 346 344 345 347 347 348 347 346 345 344 344 344 343 340 338 333 332 334 335 335 337 337 341 345 346 349 350 349 349 348 347 346 345 344 343 343
347 347 347 347 348 348 349 349 348 349 349 348 349 349 351 352 352 353 352 352 352 353 353 352 352 352 352 352 351 350 350 349 351 349 350 350 349 348 348 347 347 346 345 345 345 345 346 345 345 345 345 347 347 347 346 345 344 344 344 344 345 341 332 331 330 330 331 332 342 336 336 342 345 346 349 351 351 349 348 348 347 346 346 344 344
345 346 346 346 347 347 348 348 348 348 349 348 348 349 350 352 351 352 353 352 352 352 352 352 351 351 351 351 350 347 346 347 347 347 349 348 348 347 347 347 346 345 346 345 345 344 345 345 345 346 346 347 347 345 343 342 344 344 344 343 343 331 330 330 330 332 334 334 339 334 340 343 345 347 350 351 351 351 349 349 348 347 346 345 345
342 343 345 346 346 347 347 348 348 348 348 349 349 349 349 350 348 349 350 351 351 352 350 349 352 348 351 349 346 347 344 343 344 349 346 348 346 347 347 346 346 346 345 345 345 345 345 346 346 346 347 347 343 337 336 338 340 341 342 341 334 328 328 329 330 329 333 331 336 335 342 344 347 347 350 351 352 351 350 349 348 347 347 346 346
339 342 343 345 346 346 348 347 347 348 348 348 348 348 348 347 348 348 349 351 350 350 348 349 347 347 346 344 346 345 343 343 344 345 345 347 346 347 347 346 346 345 344 345 345 345 345 345 346 346 345 343 336 332 332 333 332 338 337 331 328 328 328 328 328 330 329 331 336 338 343 346 347 347 350 352 351 352 350 348 348 348 348 346 344
339 341 342 345 346 346 347 347 347 347 347 347 347 347 346 346 347 347 348 348 348 348 347 346 346 344 343 342 343 344 342 340 348 349 348 344 343 346 347 347 347 346 346 344 345 345 345 344 343 342 338 335 330 331 333 332 331 330 330 329 328 328 328 328 328 329 330 331 333 337 341 346 347 347 351 352 351 353 350 348 349 347 348 344 342
340 341 343 343 345 346 346 346 347 347 346 346 346 346 346 347 347 347 347 347 346 346 345 344 344 343 341 341 342 342 339 339 340 342 341 339 337 338 341 341 340 338 344 337 336 337 339 337 335 334 326 328 330 330 330 330 332 331 330 329 328 328 328 330 329 329 330 330 333 336 339 344 348 347 351 352 351 352 351 350 345 345 343 340 341
340 339 341 343 344 346 346 346 347 347 346 346 346 347 346 346 346 346 346 345 346 346 345 345 345 343 341 341 342 341 340 339 339 338 339 337 338 337 335 334 335 336 342 337 335 334 333 331 330 330 329 328 329 329 330 335 332 330 329 329 328 328 328 328 328 330 331 331 332 337 340 342 347 348 350 351 352 353 351 346 342 345 344 341 341
338 339 341 342 344 346 345 346 346 346 345 346 346 346 345 346 347 346 345 344 346 345 345 345 345 344 342 342 342 341 340 340 341 340 339 338 338 337 335 334 335 335 336 336 334 332 331 330 329 327 326 329 331 331 329 329 329 328 329 328 328 328 329 328 329 329 330 330 332 337 341 345 347 349 350 350 352 353 349 348 347 346 345 343 344
338 338 341 342 343 344 345 345 345 345 344 345 345 345 345 346 346 345 345 345 346 345 345 345 345 344 343 343 343 341 339 338 339 339 340 339 338 338 336 335 335 334 333 334 332 330 329 326 326 327 329 330 331 331 330 330 329 329 328 328 329 330 329 329 330 330 330 331 332 337 344 348 348 348 350 351 352 351 345 345 344 344 344 343 343
336 338 340 341 342 344 344 344 344 344 344 345 343 345 345 345 346 344 343 344 345 345 345 345 344 344 343 342 342 340 339 338 338 339 339 339 338 337 336 335 335 333 331 331 331 328 326 325 326 327 327 328 328 329 331 331 330 329 329 333 334 332 332 331 331 330 331 333 333 339 347 349 348 348 351 351 353 349 348 347 344 344 345 345 344
337 338 339 340 342 343 343 343 343 344 344 344 342 344 344 344 345 344 344 343 344 345 345 344 344 344 342 342 342 340 338 337 337 337 337 338 338 337 336 335 334 333 332 331 330 329 328 325 325 326 327 327 328 329 334 333 335 337 336 336 335 333 331 332 332 332 333 335 336 340 345 349 348 348 349 352 352 350 350 349 346 346 346 345 344
337 337 339 340 341 342 342 343 343 343 344 342 342 344 343 343 344 344 344 343 345 345 344 344 343 343 343 342 341 340 338 336 335 333 332 335 337 337 336 335 333 332 332 332 329 330 328 328 327 326 326 326 328 329 333 335 337 337 337 333 332 333 333 333 335 335 336 336 335 337 342 349 348 347 348 349 351 350 349 348 347 346 345 344 343
336 336 338 340 341 341 341 343 343 342 343 342 342 344 342 343 344 344 344 344 345 344 343 343 342 342 343 342 341 339 338 334 333 332 331 331 333 335 335 334 334 332 332 331 330 330 329 328 328 327 328 328 330 333 335 336 336 335 333 332 333 335 334 334 335 335 335 334 334 334 336 347 349 346 347 348 348 350 350 347 345 344 344 343 342
337 338 339 340 340 340 341 342 342 342 342 341 341 344 342 344 344 343 344 344 344 343 342 342 342 342 342 342 340 339 338 335 333 333 335 331 331 332 332 333 333 332 331 331 331 329 329 330 329 330 330 333 334 335 335 335 333 331 331 335 334 335 335 334 334 332 332 332 332 333 335 343 347 346 346 348 347 349 349 346 344 344 343 341 342
337 338 339 338 340 341 341 342 342 341 342 342 341 343 342 343 344 344 344 344 344 342 342 342 342 342 341 341 340 339 338 336 334 332 332 331 331 331 331 332 332 331 331 331 330 329 328 327 328 329 334 336 334 334 333 332 332 332 333 333 332 334 333 333 332 332 331 331 332 335 338 341 343 345 345 346 346 346 347 347 345 343 342 341 342
337 337 337 338 340 340 341 340 342 341 341 341 341 342 342 343 343 343 343 343 343 342 341 342 341 341 341 340 339 337 337 335 335 334 331 330 330 330 331 332 332 331 331 330 330 329 328 328 330 330 330 332 333 334 333 331 332 332 333 332 332 334 332 332 332 330 329 330 332 333 336 338 340 342 344 344 345 345 346 345 344 341 340 341 340
336 337 338 339 339 340 340 340 341 340 340 341 341 342 342 342 342 343 342 343 342 341 341 341 341 341 341 340 339 337 337 336 335 334 333 330 330 330 331 332 332 331 331 330 330 329 329 329 331 330 330 331 333 332 330 331 331 332 332 331 330 334 331 330 329 329 328 328 329 332 334 336 337 340 341 340 342 345 344 343 342 341 339 339 339
336 337 338 338 338 339 340 339 339 340 340 340 340 341 341 341 340 340 341 342 341 341 341 341 340 340 339 339 338 338 337 336 335 334 333 331 329 329 330 331 332 332 331 330 331 331 331 331 331 333 332 332 332 332 331 330 331 330 329 329 329 330 330 330 330 330 328 328 329 330 334 340 344 341 337 338 340 341 341 340 339 338 338 338 337
335 337 338 338 338 338 339 339 340 340 340 340 339 340 341 341 340 340 341 341 341 340 340 340 339 339 337 338 338 338 337 336 336 335 333 332 331 329 329 330 331 331 331 330 331 332 332 333 332 335 334 332 330 331 331 330 330 329 327 327 325 325 328 329 330 332 328 328 329 332 334 334 334 335 336 337 337 337 337 336 336 335 335 334 334
335 336 337 337 338 338 338 339 339 339 340 340 339 339 340 340 340 340 340 340 340 340 339 338 338 338 337 338 337 337 338 335 335 335 333 333 332 330 330 330 331 331 331 331 331 332 333 333 334 334 335 331 331 330 331 329 328 325 325 324 324 326 327 329 325 326 328 331 334 333 332 332 332 333 334 335 334 333 332 332 331 331 331 332 331
334 336 336 337 337 337 337 337 338 339 339 340 339 338 338 337 336 338 338 339 339 339 338 337 337 337 338 338 337 337 337 336 334 334 334 334 332 331 331 331 331 332 332 331 331 333 334 334 332 333 332 334 332 330 328 327 322 320 325 324 325 328 328 326 326 326 327 327 329 330 330 330 331 332 332 332 331 330 329 329 329 328 329 329 329
333 335 335 335 336 337 336 335 338 339 339 338 337 336 335 335 337 336 336 338 338 339 338 337 336 337 338 337 337 336 336 336 335 334 333 336 333 332 331 330 332 333 333 333 333 334 335 336 335 335 333 331 331 328 326 323 323 324 318 322 325 326 328 326 325 325 325 326 328 328 329 329 330 330 329 329 328 327 326 326 325 325 325 324 324
332 334 334 335 335 336 336 336 337 338 339 339 338 337 337 337 336 336 337 338 338 337 336 336 336 337 337 337 336 336 335 335 336 333 334 333 333 332 330 331 332 332 333 334 333 337 335 334 333 332 330 332 330 329 327 324 320 319 320 319 322 323 326 323 323 324 326 327 327 328 328 328 328 328 328 327 326 325 325 325 325 325 325 325 324
332 333 334 335 335 335 336 336 337 338 339 339 339 337 338 338 338 338 338 338 340 340 339 337 337 336 337 336 336 335 334 334 334 334 333 332 333 333 332 331 332 334 333 332 333 334 334 334 333 334 330 328 329 328 325 324 320 318 318 319 315 316 321 320 322 322 323 324 327 328 328 328 328 328 327 325 324 323 323 324 323 323 323 323 323
331 332 333 334 335 336 335 336 336 338 339 339 339 339 338 338 338 337 338 339 338 339 338 336 335 335 335 336 335 334 334 333 333 334 333 333 333 333 333 332 332 333 333 332 332 333 333 333 333 333 332 329 326 327 328 322 319 318 317 314 314 314 314 316 317 319 321 322 324 326 328 327 327 327 325 323 322 322 322 323 322 322 322 321 321
331 332 333 334 335 335 336 336 336 337 338 339 339 338 338 336 336 336 337 335 334 335 333 332 333 334 335 333 333 333 333 332 333 333 334 333 333 333 333 332 332 331 333 332 332 333 334 335 335 333 331 331 325 323 325 323 319 324 319 313 314 315 312 315 315 315 318 319 321 326 327 326 326 324 322 321 321 321 321 321 321 321 321 320 320
330 332 334 334 335 336 336 336 336 337 337 338 339 338 337 335 334 334 332 333 332 332 331 331 330 331 333 334 333 333 333 332 333 333 334 334 333 333 333 332 331 331 333 333 333 333 333 334 334 334 330 329 330 323 322 325 324 323 318 317 318 315 314 314 313 310 317 318 320 323 324 324 325 322 321 320 320 320 321 320 321 321 321 321 321
331 332 333 334 335 336 336 336 336 336 338 338 339 338 336 335 335 335 335 334 333 333 333 333 332 332 333 332 332 332 333 332 332 333 334 335 334 333 333 332 332 332 334 333 332 333 333 334 335 333 332 328 328 325 323 322 322 322 321 321 321 317 318 317 313 311 310 314 318 318 320 322 322 320 319 319 319 319 320 321 320 320 320 321 321
332 332 333 334 334 335 336 336 336 336 337 339 339 338 336 335 334 334 335 334 334 333 332 331 332 333 331 332 331 331 332 332 332 333 334 335 334 333 333 332 332 332 335 334 334 334 333 333 334 333 330 328 329 327 323 322 322 320 322 319 321 318 315 314 315 315 311 311 313 317 318 319 319 319 319 318 318 318 318 318 319 319 319 319 319
331 331 332 334 335 335 336 336 336 336 337 338 338 338 337 336 335 335 334 335 335 334 333 332 331 332 330 330 330 330 331 331 332 333 333 334 336 334 333 332 332 332 336 334 333 333 333 332 331 329 328 328 327 327 324 322 320 319 316 315 315 315 314 314 314 313 311 309 308 310 313 316 317 317 318 318 318 318 318 318 319 318 320 319 318
332 332 333 334 334 335 335 335 335 336 337 337 338 337 337 336 335 334 334 333 334 332 332 330 330 330 329 329 329 329 330 330 330 332 333 334 334 334 333 333 333 333 335 334 333 332 332 331 330 328 326 325 325 327 326 323 320 320 319 317 314 314 315 315 313 311 311 312 310 310 313 314 312 314 317 317 318 318 319 319 318 317 317 317 318
331 331 332 333 334 334 334 334 335 336 337 337 337 336 336 336 335 335 334 333 332 331 330 329 330 329 329 328 328 328 329 330 330 331 332 333 333 334 333 333 333 334 335 333 332 332 330 327 326 327 326 325 323 325 323 322 320 319 317 318 317 317 316 314 313 311 312 309 311 311 312 313 313 311 315 318 318 317 318 317 316 316 316 317 317
Wind_Speed
13 15 12 17 18 20 20 20 21 21 21 21 21 21 22 22 21 21 20 20 19 18 18 18 18 18 18 19 19 18 19 18 17 17 16 16 15 14 14 13 13 14 14 14 15 14 14 14 14 14 13 13 13 13 13 13 13 13 13 12 12 12 12 11 11 11 10 9 9 8 8 9 9 10 9 10 10 9 9 9 9 6 4 7 10
18 14 12 14 19 19 21 20 21 21 22 22 22 21 20 21 21 21 21 21 20 19 19 19 18 18 18 18 19 19 18 17 17 16 15 15 14 14 14 14 14 14 14 15 14 14 14 14 15 14 13 13 13 12 12 12 12 12 12 11 11 10 10 9 9 9 9 9 9 10 9 10 9 9 9 9 10 9 9 9 9 4 2 8 8
15 14 12 15 21 20 20 21 21 22 22 22 22 21 21 20 20 21 21 20 20 20 19 19 19 19 18 18 19 19 18 17 16 15 15 15 15 15 15 14 14 14 14 14 14 14 14 14 14 14 13 12 12 11 11 11 11 11 11 11 10 9 9 8 8 7 7 8 8 8 9 9 9 8 8 9 9 9 8 8 8 7 5 8 7
16 12 12 16 20 19 19 21 21 22 22 23 22 22 21 20 20 20 21 20 20 19 19 19 19 19 18 18 18 17 18 17 16 16 16 15 15 15 15 14 14 14 14 14 14 13 13 13 14 13 13 12 12 11 11 11 11 10 9 9 8 8 8 8 7 7 7 7 8 7 4 4 4 7 8 8 8 8 8 7 7 8 8 7 8
17 13 12 13 15 17 19 21 21 21 23 23 23 23 21 20 20 20 20 20 19 19 19 18 18 18 18 18 17 17 17 16 16 16 15 14 14 14 14 14 14 14 14 14 13 13 13 13 13 13 12 12 12 11 10 10 9 8 7 6 5 6 6 7 7 7 8 8 8 5 4 4 3 6 7 8 8 8 8 8 7 7 7 7 7
15 13 12 12 13 14 19 19 21 22 22 23 23 23 21 21 21 21 20 19 19 18 19 19 18 18 18 18 17 17 16 16 16 15 14 13 12 13 14 14 14 13 13 13 13 13 13 13 13 12 12 12 11 11 10 10 10 8 6 5 4 3 3 4 5 6 7 9 8 4 3 3 2 2 7 8 8 8 8 7 7 6 6 7 6
16 12 12 13 11 14 19 19 20 21 23 23 23 23 22 21 20 20 20 20 19 19 19 19 19 18 18 18 17 17 16 16 16 15 13 12 12 13 14 13 13 13 13 13 13 13 13 13 13 12 12 12 11 10 9 9 8 7 5 4 2 2 0 2 3 4 6 6 3 3 2 2 1 1 6 7 8 8 7 6 6 6 6 7 6
13 12 12 12 12 16 20 19 20 21 23 23 23 23 21 21 21 21 20 20 20 19 19 19 19 18 18 18 17 17 16 16 15 13 12 12 11 12 13 13 13 13 12 13 12 12 12 12 12 12 12 11 10 9 8 7 7 6 5 3 2 1 1 3 3 4 5 4 4 3 3 2 1 1 4 7 8 7 7 7 6 6 6 6 6
13 12 12 12 12 20 20 19 20 22 22 23 23 23 22 21 21 21 21 20 20 20 19 19 19 18 18 17 17 17 16 16 15 14 13 13 12 12 12 13 13 12 12 11 11 11 11 11 11 11 10 10 10 8 7 6 7 6 5 5 4 3 2 2 3 6 5 4 4 4 4 3 2 2 3 6 7 7 7 6 6 6 5 5 6
13 12 12 11 12 23 20 20 19 21 22 22 22 22 21 20 21 20 21 21 20 20 19 19 18 18 17 17 17 17 15 15 15 15 14 14 13 12 11 12 13 13 12 11 11 10 10 10 11 10 9 9 9 8 6 6 6 6 5 6 6 6 5 3 3 4 3 4 5 4 4 4 2 2 4 7 7 7 7 8 5 5 5 5 4
14 13 12 11 14 22 20 19 20 21 22 22 22 22 22 21 21 21 20 20 20 20 19 18 18 18 17 17 16 16 15 15 15 15 14 14 13 12 12 10 10 11 11 11 10 10 10 9 9 9 8 7 8 7 6 5 5 5 6 7 8 8 8 4 3 3 4 5 6 4 4 7 3 2 6 7 7 7 7 7 7 7 6 5 5
14 13 12 11 17 21 20 20 20 21 23 23 22 21 21 20 21 21 21 20 21 19 19 18 17 17 17 17 16 16 15 16 16 15 14 14 13 12 11 11 8 8 9 9 10 10 9 8 8 8 6 6 7 7 6 5 5 6 7 7 7 8 9 5 4 4 4 5 6 5 4 4 3 3 8 6 6 7 8 8 7 7 7 6 5
13 12 11 11 13 19 20 20 20 23 22 22 21 22 21 20 21 21 20 19 19 19 19 18 17 15 16 16 16 15 15 15 14 14 14 13 13 12 11 10 10 12 12 12 11 9 8 8 7 7 6 5 5 6 5 5 5 6 7 7 8 9 10 7 4 5 4 5 4 5 5 4 3 4 8 7 6 7 7 7 7 7 6 6 6
12 11 10 11 11 20 20 20 20 20 20 21 20 20 20 21 20 20 19 19 18 18 17 17 16 15 14 15 15 14 13 13 13 14 14 13 12 12 11 10 11 11 11 11 10 9 7 7 6 6 5 5 5 5 5 5 6 7 8 8 8 9 10 5 4 3 4 4 4 5 5 4 4 5 7 8 7 7 7 7 7 7 7 6 6
10 11 11 11 12 14 21 19 18 19 18 18 18 18 18 18 18 19 18 17 17 16 17 16 15 16 15 15 14 13 13 12 12 14 13 13 12 11 11 10 10 10 10 9 9 8 7 6 5 5 4 4 5 5 5 6 6 7 7 7 6 6 8 4 3 3 1 2 3 4 4 4 6 6 7 8 8 8 7 7 7 7 7 7 7
8 10 9 9 10 11 13 17 19 17 17 17 17 18 17 17 18 18 17 17 17 16 16 17 16 15 15 14 14 13 13 12 11 12 12 11 11 11 10 10 9 9 8 7 7 7 6 5 4 3 3 4 5 5 5 5 5 6 6 6 5 5 6 4 3 3 1 0 2 3 4 4 8 8 8 9 9 9 8 8 8 8 8 7 7
8 9 9 9 9 9 10 12 14 20 17 18 17 18 16 17 17 17 17 17 17 16 16 16 16 15 15 14 14 14 13 12 12 12 12 12 11 10 10 9 8 8 7 6 5 5 4 4 3 2 2 3 5 5 6 6 6 6 6 5 5 4 6 4 4 2 1 3 3 3 4 3 7 8 9 10 10 10 9 9 8 8 8 8 7
9 8 9 10 8 8 8 10 12 12 12 15 17 17 17 17 17 16 16 16 17 16 16 15 15 15 14 14 15 15 14 13 12 12 12 11 10 9 9 8 7 6 6 5 4 4 3 2 2 1 1 3 4 6 7 8 8 7 5 5 3 4 5 4 3 1 2 2 4 4 4 6 9 10 10 10 10 10 10 10 9 9 8 8 9
9 9 9 10 10 9 9 8 9 10 11 9 9 14 19 19 19 18 17 18 18 17 17 15 16 15 16 16 16 16 14 14 13 12 11 10 9 9 8 7 6 5 5 4 4 3 3 1 0 0 1 2 4 5 7 7 7 7 7 6 3 3 5 3 2 2 3 3 2 4 5 9 10 10 10 11 10 10 10 10 10 9 9 9 10
9 10 10 9 9 10 8 8 7 8 8 8 9 11 15 19 17 18 18 19 18 17 16 16 17 17 16 16 15 12 12 11 13 10 11 9 9 7 8 7 6 6 5 4 4 3 3 1 1 1 2 3 4 5 6 7 7 7 7 7 7 5 2 1 1 2 3 3 3 3 5 10 12 11 11 11 11 11 11 11 10 10 10 10 10
7 10 9 10 10 10 10 8 8 8 8 8 8 9 12 17 15 19 19 18 17 17 18 18 16 15 14 13 11 7 5 5 7 5 10 6 7 8 7 7 6 6 6 5 4 4 3 2 1 1 3 4 5 6 6 6 5 5 6 6 6 4 3 3 3 3 3 3 3 3 6 9 12 12 11 12 11 11 11 11 11 11 11 11 11
10 9 9 10 11 10 10 9 8 9 9 7 7 7 9 12 9 10 11 13 14 15 13 9 10 7 12 10 6 5 4 4 5 7 4 5 6 8 7 7 6 6 5 5 4 3 3 2 1 2 2 4 6 3 3 4 6 6 6 7 5 4 3 3 3 3 3 2 3 3 6 9 11 12 12 13 11 12 11 11 11 11 12 12 11
11 10 9 11 10 10 10 10 10 9 10 8 6 7 9 9 9 8 8 10 10 10 7 8 6 7 6 5 5 4 5 4 4 4 4 7 6 8 8 7 6 6 5 4 3 3 2 2 1 3 4 5 2 2 3 4 5 6 5 5 4 5 4 3 3 3 3 3 3 4 5 7 10 11 12 12 11 10 10 10 10 11 11 11 8
12 11 11 9 10 10 11 10 10 10 10 7 6 6 6 7 7 8 7 7 7 7 6 6 6 6 6 5 5 5 5 4 7 10 8 5 5 7 8 7 7 6 6 3 1 1 2 5 6 6 4 2 2 3 4 4 4 4 4 4 4 5 5 4 3 3 3 4 3 5 6 7 8 9 11 11 10 9 10 10 11 11 11 5 6
10 10 9 11 11 11 11 11 11 11 10 8 8 7 7 7 7 7 7 7 6 7 6 6 6 6 6 5 6 5 4 4 3 3 4 4 2 3 3 3 2 2 4 2 1 0 1 1 2 3 3 3 4 5 4 5 4 4 4 4 4 4 4 4 3 3 4 4 4 4 5 6 6 9 11 10 9 7 7 10 4 12 3 6 5
10 10 11 11 11 11 11 10 10 11 11 8 8 9 10 7 7 8 7 6 7 8 6 6 6 6 6 6 6 6 5 4 3 4 4 4 4 4 4 3 3 3 2 2 2 1 1 1 1 2 3 3 4 4 4 4 5 4 4 4 4 4 4 4 3 4 4 4 4 5 4 6 6 9 11 9 6 5 6 7 8 12 4 5 4
11 10 10 10 10 11 11 11 10 10 11 8 8 8 8 7 7 8 8 7 7 7 7 6 6 7 6 6 6 6 6 5 4 4 5 3 4 3 4 3 3 3 3 3 3 2 1 1 1 2 3 3 4 4 4 4 3 4 4 5 4 4 4 4 3 4 4 4 4 6 4 4 7 9 8 6 4 4 3 6 6 4 2 3 5
10 11 11 11 10 12 12 11 10 9 10 9 8 8 7 8 7 9 7 8 8 8 7 7 7 7 6 6 7 6 6 6 6 4 5 5 5 5 3 3 3 3 2 3 3 2 1 1 1 2 3 3 4 5 4 3 3 3 5 5 4 4 4 4 3 3 3 3 4 4 4 3 6 7 5 5 4 3 1 4 2 2 5 2 3
12 12 10 12 12 11 12 11 11 10 9 9 8 7 8 7 8 8 7 10 7 7 7 7 7 6 7 7 7 6 6 6 7 5 4 6 4 5 3 4 3 3 2 3 3 3 2 1 2 2 2 3 3 4 4 4 3 3 4 4 4 4 4 3 3 2 2 2 3 3 3 2 4 6 7 5 5 5 3 2 3 5 7 7 7
12 12 12 11 11 12 12 13 12 10 10 9 8 7 8 8 8 8 7 9 7 7 8 7 7 6 7 7 7 7 7 6 7 5 5 5 7 5 3 3 4 3 3 4 3 3 3 2 2 2 3 3 3 3 3 4 4 3 3 3 4 3 3 3 3 3 3 2 3 3 5 1 6 7 7 5 7 5 4 5 6 7 8 9 10
13 14 12 11 11 12 12 12 11 10 9 10 9 8 9 8 8 8 8 8 8 7 7 7 7 7 7 8 7 7 7 6 6 5 5 5 5 5 5 3 4 4 3 4 2 3 3 3 3 3 3 3 4 3 3 4 3 4 3 4 3 3 3 3 3 4 3 3 3 3 3 1 6 7 6 7 7 6 6 8 8 8 9 9 10
15 14 11 11 12 13 13 11 11 10 9 10 10 8 10 8 7 8 8 8 8 7 8 7 7 7 7 8 7 6 6 6 6 5 5 5 4 4 4 4 5 4 4 4 3 3 4 4 4 4 4 3 4 4 3 3 5 4 3 3 2 2 3 3 2 2 2 3 3 3 2 3 6 8 9 9 8 5 7 9 8 9 9 9 10
9 12 12 12 13 13 12 11 11 10 10 11 9 7 9 7 7 8 7 8 6 8 7 7 7 7 7 7 7 7 6 6 6 6 5 5 5 5 5 5 5 4 3 4 4 3 3 4 4 3 3 2 3 4 3 3 4 4 1 1 2 1 1 1 1 1 1 1 2 1 2 3 4 8 9 9 8 7 9 9 8 9 9 9 13
11 10 11 11 10 8 8 9 11 12 11 9 9 7 9 7 7 6 7 8 6 8 7 6 7 7 7 7 7 8 6 6 6 5 5 5 5 5 5 5 5 5 4 4 4 4 4 4 3 2 2 1 3 4 3 3 2 1 2 2 3 2 1 0 1 2 2 2 1 3 3 3 4 4 5 8 8 8 10 9 9 10 9 11 12
10 11 13 13 12 10 9 8 11 12 12 10 11 8 9 8 8 7 7 7 7 7 7 6 6 6 6 6 8 7 7 6 6 6 6 5 5 5 5 6 5 4 5 5 5 4 4 4 2 3 2 2 1 3 2 3 2 2 2 1 2 2 2 1 2 1 3 3 2 3 3 4 4 4 4 3 6 9 9 10 11 9 11 12 11
13 13 12 12 13 11 11 10 12 12 11 11 9 8 8 9 7 8 7 8 7 7 7 7 6 5 6 6 8 7 7 7 7 6 6 5 5 5 6 5 5 4 5 4 4 4 4 3 3 3 3 3 2 3 3 2 2 2 2 2 2 2 1 2 2 2 2 3 3 3 3 3 4 4 6 5 6 9 14 12 11 12 12 12 13
12 13 14 13 13 13 13 12 14 13 12 11 11 8 8 8 9 8 8 9 8 8 7 6 6 6 6 6 7 7 8 8 7 7 6 5 5 5 6 6 4 4 4 3 4 4 4 4 3 4 4 4 4 5 2 2 2 2 3 3 3 4 2 2 2 2 1 4 3 3 4 5 6 7 5 7 8 9 14 17 16 15 15 15 13
11 12 13 14 14 12 12 12 12 13 11 11 12 10 8 9 8 8 8 8 9 7 6 6 7 6 6 7 7 7 7 8 7 6 6 5 5 6 6 5 4 4 4 3 4 3 4 4 4 3 3 4 5 4 3 1 0 3 3 4 4 3 2 3 3 3 3 4 4 4 4 5 6 6 8 8 9 8 8 13 16 16 16 15 14
10 12 12 12 11 11 10 12 12 12 11 11 12 11 9 8 8 8 8 8 7 6 5 6 6 6 7 7 7 7 7 7 7 6 6 5 5 5 6 5 4 4 4 4 3 4 4 4 4 3 1 3 4 5 4 4 2 3 4 5 4 3 2 3 3 4 4 4 4 4 6 6 5 8 9 9 7 8 9 7 6 6 9 15 13
10 11 12 12 12 12 10 10 11 11 10 10 10 10 9 9 10 9 8 8 7 6 5 6 6 7 7 7 7 7 6 6 7 6 6 6 5 6 6 4 4 5 5 4 4 4 6 5 5 5 5 2 1 3 3 4 3 5 4 5 5 4 5 3 5 5 4 4 4 5 6 5 6 9 9 8 7 8 8 7 6 6 6 10 14
10 12 13 12 13 13 12 13 11 11 10 10 10 10 11 9 9 10 9 7 7 7 6 6 7 7 8 7 7 6 6 6 6 7 7 6 6 5 4 4 5 5 5 6 6 6 6 6 4 4 5 4 2 2 2 3 3 2 4 6 5 5 5 6 6 6 5 3 4 6 4 6 8 9 8 8 9 8 7 6 6 5 5 5 7
11 12 14 14 12 13 13 13 11 11 11 11 10 9 9 8 8 8 6 7 7 8 7 7 8 7 7 6 6 6 7 7 7 7 7 7 6 5 5 5 5 5 5 5 4 5 5 4 4 3 0 4 4 4 3 2 3 2 1 2 4 4 4 7 7 7 6 6 6 6 5 8 9 8 7 8 8 9 8 6 5 5 5 5 5
13 14 12 12 13 13 13 12 11 12 11 11 10 10 8 7 7 6 8 5 5 6 7 7 7 7 7 6 6 6 7 6 6 6 6 7 7 6 6 6 6 5 4 4 4 5 5 6 7 6 3 1 2 1 3 1 3 2 2 4 1 1 3 5 4 8 7 6 5 6 6 9 9 7 7 7 7 6 5 5 6 5 5 5 4
11 11 12 14 12 12 12 12 12 12 11 10 10 9 9 8 8 6 7 7 7 7 7 6 6 6 7 6 5 6 6 6 6 6 6 7 8 7 6 6 6 5 6 6 5 6 5 5 5 5 5 4 2 2 2 3 4 6 0 1 2 3 2 2 4 6 6 8 7 5 7 8 9 8 5 8 6 5 5 5 6 5 4 5 4
13 13 14 14 11 14 13 13 12 12 10 11 11 9 9 7 6 5 6 5 2 5 6 6 6 6 6 5 6 5 5 6 6 7 7 8 6 6 6 5 5 5 5 5 6 7 7 7 7 6 6 6 5 2 2 3 4 0 6 4 2 1 3 3 2 6 6 7 8 7 8 7 8 7 6 6 5 5 5 6 5 5 5 4 4
13 13 13 13 12 12 13 12 11 11 11 12 12 10 8 8 8 8 9 9 8 8 9 9 7 7 8 4 4 5 5 5 6 7 6 5 6 6 6 6 6 5 6 6 6 5 5 6 7 7 7 5 6 5 3 3 4 3 2 2 4 3 5 4 2 3 3 7 7 8 7 7 6 7 6 6 5 5 5 5 4 5 4 3 3
14 12 12 13 13 13 13 13 12 11 11 11 12 10 9 8 10 9 8 8 9 7 5 5 6 6 5 5 5 4 5 6 6 6 5 6 6 6 7 6 6 7 6 6 6 7 6 7 5 5 7 5 5 5 6 4 4 4 3 3 4 2 5 6 3 5 3 4 7 6 6 7 6 6 6 5 5 5 4 4 4 4 3 2 2
13 12 12 12 15 15 14 13 11 11 11 11 12 11 10 9 9 9 10 11 10 8 7 6 5 5 6 6 5 5 6 6 6 6 6 6 6 6 6 6 7 7 7 7 7 7 5 4 4 5 4 5 6 6 6 7 7 3 2 3 4 4 4 3 5 6 5 5 3 5 6 6 6 5 4 5 5 5 5 4 4 3 2 2 2
12 14 15 14 13 13 13 12 12 12 11 12 12 11 10 10 10 9 9 8 8 7 6 6 6 6 6 4 5 5 6 5 6 6 6 7 7 7 7 7 6 6 6 6 6 6 7 6 5 5 5 4 2 3 7 6 6 6 5 3 4 4 4 4 3 4 4 5 1 2 5 4 5 4 3 3 3 3 3 3 3 3 3 2 2
12 11 10 10 11 12 13 14 13 12 11 12 12 12 11 10 10 11 11 9 6 5 6 7 7 6 6 5 5 5 5 5 5 6 6 6 7 7 7 8 8 7 6 7 6 6 5 5 2 6 9 6 4 5 3 6 5 6 6 6 4 3 4 2 3 4 5 4 7 6 7 8 7 2 2 2 3 3 3 3 3 3 2 1 2
8 10 11 12 11 13 13 14 13 11 12 13 12 12 11 11 11 11 11 9 8 7 7 6 5 5 6 6 6 5 5 6 5 5 6 6 6 6 7 7 6 6 6 6 6 5 4 5 6 8 8 8 6 4 4 4 5 6 6 6 7 7 6 5 5 3 4 4 6 6 5 1 6 7 2 2 2 3 3 2 3 2 1 1 1
Wind_Direction
174 162 164 162 160 157 156 152 146 139 135 135 134 132 131 131 130 129 128 127 126 125 123 123 123 123 123 123 121 120 119 119 120 122 122 123 125 125 122 120 118 116 113 109 108 105 103 101 97 93 92 89 84 80 83 84 82 81 80 80 77 76 74 71 69 68 68 69 71 77 80 80 80 81 75 74 73 71 71 68 61 40 40 66 65
165 162 159 161 159 156 156 152 147 142 137 137 136 135 133 133 132 131 130 129 129 129 128 127 127 126 126 124 123 122 122 123 124 124 125 125 122 122 121 120 118 115 112 109 108 106 105 103 99 97 94 91 88 89 88 87 88 86 84 82 81 79 79 80 79 79 77 77 74 73 76 79 81 84 85 84 79 79 78 77 74 51 20 73 70
141 151 155 159 158 157 156 153 149 144 141 139 138 137 136 135 135 132 131 131 130 131 130 130 129 129 128 126 125 125 125 125 125 125 124 123 123 121 120 118 116 114 114 112 110 107 104 102 98 98 97 95 96 95 95 93 93 95 96 93 91 93 94 93 91 90 87 80 78 69 61 81 89 91 94 89 84 74 72 80 84 78 70 69 69
141 150 153 157 156 157 156 154 150 146 143 141 140 139 138 138 137 134 132 132 132 132 132 131 130 130 129 127 126 126 126 127 127 126 126 126 123 121 120 118 116 115 114 114 111 106 102 99 99 98 99 101 102 101 101 99 97 95 90 90 89 94 102 104 107 103 100 95 86 69 61 45 82 103 103 100 93 91 84 78 77 77 74 71 67
144 148 152 153 154 157 157 154 151 148 145 143 141 141 141 141 139 136 134 133 133 133 133 132 131 130 129 129 128 128 128 128 128 127 127 125 123 123 121 119 118 117 115 114 110 105 101 98 99 99 100 100 100 101 100 99 97 94 94 91 91 89 105 116 114 113 110 106 97 78 56 58 40 110 107 107 103 99 97 94 89 80 71 70 70
142 147 150 149 152 157 157 153 152 150 146 143 142 142 143 143 141 138 136 136 135 136 135 134 133 132 132 131 130 130 130 130 129 127 127 124 122 122 121 119 119 117 116 113 109 103 101 102 101 100 98 96 95 94 92 90 89 87 83 80 76 84 93 124 129 127 117 114 105 87 72 50 56 89 121 119 118 110 104 99 96 98 97 83 74
138 146 149 149 151 158 156 155 153 151 147 145 144 145 145 144 142 140 139 138 138 138 137 136 136 135 135 134 133 132 132 131 129 128 124 122 122 122 121 120 119 119 117 112 107 105 104 103 101 99 97 93 90 85 81 81 82 80 78 77 78 98 92 170 166 156 141 106 114 123 123 94 53 279 131 136 127 119 105 100 99 95 90 91 88
140 149 150 150 153 160 156 156 154 152 149 147 146 147 147 146 144 143 141 140 140 140 139 138 138 138 137 136 136 135 134 132 130 127 123 123 121 122 122 120 119 117 115 108 107 107 106 104 101 98 94 91 84 76 71 71 72 70 60 42 36 8 229 219 215 215 191 122 137 155 159 178 270 319 153 137 139 129 125 122 121 125 119 115 97
145 150 149 149 154 159 157 155 155 154 151 148 148 149 148 147 146 144 143 141 141 141 141 140 140 140 139 138 137 137 135 134 131 126 124 125 124 120 121 122 121 117 112 110 107 106 103 99 97 94 91 87 80 70 61 61 68 64 48 24 14 353 319 230 225 212 213 136 152 160 177 201 239 292 208 144 140 136 131 129 131 124 113 108 110
147 150 151 151 157 161 156 156 156 155 152 150 149 150 150 148 147 146 144 143 143 142 142 142 142 141 140 140 139 138 136 135 131 128 128 129 126 122 122 124 123 120 117 114 112 109 105 97 91 88 86 83 79 68 54 50 57 59 43 23 7 358 345 302 209 199 149 159 152 165 189 191 227 275 249 157 145 143 139 133 136 134 134 122 116
147 152 152 152 159 158 156 157 156 156 153 152 152 152 151 150 148 147 145 145 144 143 143 144 143 142 142 141 140 139 136 134 133 132 132 130 126 124 121 120 121 125 123 121 118 113 104 95 91 86 82 80 78 68 51 38 36 44 41 23 7 354 347 358 108 129 130 150 163 160 190 194 174 269 274 170 159 153 154 153 153 150 143 142 127
150 151 152 154 159 157 158 157 158 156 155 153 154 153 152 151 150 148 147 146 146 145 144 144 144 144 143 143 142 140 135 136 136 135 133 131 128 126 125 123 117 105 108 115 112 106 99 95 89 87 81 75 72 65 49 33 24 29 38 25 9 357 2 46 83 95 118 143 157 164 181 190 161 247 263 186 177 170 166 166 161 157 151 147 140
148 150 148 155 157 158 159 159 159 158 157 155 155 155 154 152 151 150 148 147 147 147 146 144 144 144 145 145 143 139 136 137 137 136 136 134 132 131 130 127 108 104 105 103 106 103 100 96 90 83 73 58 57 56 42 32 28 27 35 30 14 8 26 61 89 100 117 138 147 155 157 150 168 242 253 194 202 191 181 173 164 165 165 157 152
143 144 147 154 156 161 160 159 159 158 156 156 156 156 155 154 152 151 149 148 148 148 146 145 144 144 145 145 142 137 136 138 138 139 139 136 135 135 133 124 112 110 110 108 106 107 102 97 88 77 63 40 31 35 31 25 27 31 35 34 23 16 35 44 58 86 124 139 146 148 155 163 178 232 240 198 202 206 196 180 174 174 175 175 165
142 143 152 158 159 159 160 159 158 157 156 155 154 155 155 154 152 149 149 148 148 146 146 145 144 146 146 143 138 136 138 140 141 142 140 141 140 140 137 124 117 115 113 113 112 111 109 100 84 71 51 28 12 12 16 19 29 36 37 44 37 34 42 53 46 35 68 139 140 158 167 172 190 219 229 206 202 208 206 196 187 183 184 187 180
136 143 151 151 153 155 158 160 159 156 155 153 154 155 154 152 151 150 149 149 146 146 147 147 147 147 147 143 139 138 140 140 142 144 142 142 142 142 137 130 125 124 120 119 117 113 114 106 99 73 45 14 1 360 359 11 30 45 44 47 48 53 57 51 65 78 48 118 179 163 190 194 200 212 228 209 205 208 209 206 197 192 190 196 194
134 145 147 148 150 155 156 158 159 158 154 155 156 155 153 151 150 150 149 148 147 147 148 149 149 149 148 145 141 140 141 143 144 147 146 145 140 132 130 129 131 128 127 124 122 114 110 118 116 98 38 6 352 348 349 0 15 39 63 46 56 46 87 66 39 44 200 180 192 194 202 198 210 217 219 213 208 209 209 211 204 200 196 199 205
139 147 148 146 151 153 156 157 158 155 156 155 156 155 155 151 151 151 150 148 148 148 149 149 151 150 148 146 145 145 144 149 150 150 150 144 134 133 133 136 140 132 133 132 129 130 133 125 134 105 47 350 341 346 354 357 6 17 43 86 72 72 96 110 136 309 275 227 194 190 197 211 211 217 222 217 213 213 211 213 210 204 202 203 210
145 147 145 151 156 154 157 158 160 155 157 154 155 158 157 155 154 152 152 152 152 151 150 151 152 152 151 151 152 151 150 153 155 155 148 138 141 139 136 143 148 153 149 155 154 152 158 155 257 211 331 333 341 355 359 0 4 355 354 354 46 94 119 135 175 209 225 257 216 199 200 210 211 212 223 223 218 216 214 215 214 211 207 209 214
147 146 150 156 156 156 157 159 157 159 157 153 157 157 157 155 154 154 152 156 155 152 150 153 156 156 156 156 156 155 156 158 160 161 156 145 148 140 145 142 147 152 153 166 173 168 179 192 239 299 329 347 354 355 6 359 348 343 336 337 339 3 102 149 176 219 230 236 234 205 216 208 209 208 217 223 223 220 216 217 218 215 213 214 219
152 154 156 158 158 159 160 157 159 157 154 154 154 154 158 155 154 156 153 157 158 158 157 157 158 159 159 156 154 145 141 152 155 143 161 150 151 155 154 153 158 162 164 175 181 181 187 199 234 305 343 351 353 9 353 335 323 318 316 318 329 352 332 328 278 249 245 235 259 222 230 214 209 206 211 220 222 224 221 220 222 220 221 222 222
160 156 161 160 160 161 160 158 158 157 155 158 161 156 159 153 153 156 155 157 160 160 160 156 155 155 156 156 137 140 127 119 131 156 132 155 164 163 166 165 168 173 175 179 194 187 196 211 260 340 349 2 14 350 319 308 309 307 311 320 330 317 307 285 287 282 281 272 250 245 237 221 210 208 206 215 219 225 225 225 225 225 229 230 230
167 164 163 164 163 158 159 161 161 158 156 163 163 162 156 152 154 153 154 152 159 157 151 155 141 149 142 129 133 118 125 126 128 140 149 167 169 173 174 174 178 185 180 190 198 206 214 232 291 358 22 9 355 307 303 302 306 310 317 324 317 315 313 295 279 283 283 275 253 257 256 223 216 209 209 212 217 225 231 229 230 228 230 235 241
166 167 159 160 164 165 162 161 162 159 159 165 161 160 154 154 154 153 151 151 155 147 148 140 141 137 131 127 124 128 126 136 163 168 172 169 177 180 183 182 186 193 192 188 243 285 335 15 18 12 12 342 308 306 297 295 295 304 314 321 312 307 306 294 278 275 275 269 261 242 246 234 219 211 213 212 214 226 230 236 230 232 234 263 300
160 154 160 165 168 167 161 163 162 162 162 165 163 160 151 155 157 152 149 151 145 141 139 137 138 133 133 130 128 132 133 147 151 151 138 153 171 176 184 166 163 193 186 123 171 270 1 329 352 342 310 325 312 291 295 300 300 318 325 313 298 295 290 279 276 271 269 274 274 266 252 250 216 206 213 209 212 224 235 244 294 268 31 337 284
154 167 169 161 166 166 164 163 163 167 165 165 164 160 156 161 161 154 153 150 147 147 144 147 142 138 137 135 135 142 146 150 142 140 155 158 182 186 177 152 155 187 187 157 190 208 231 238 295 306 297 280 276 282 283 291 309 315 305 293 288 287 286 291 284 276 272 288 290 286 264 246 221 204 209 201 203 212 231 251 197 246 123 209 244
164 166 163 164 163 163 165 165 166 167 162 165 160 161 162 161 161 161 158 155 152 151 150 151 148 145 143 145 145 145 155 164 165 166 170 172 190 189 190 172 186 200 203 189 216 216 193 221 231 252 273 288 293 293 296 295 286 292 295 291 295 291 292 289 276 273 287 291 289 298 286 253 211 202 201 183 186 203 230 252 250 262 109 185 253
158 161 170 165 166 167 165 167 167 166 160 168 163 168 162 163 164 162 164 160 155 158 154 155 148 151 150 155 156 159 164 172 184 178 179 185 204 211 189 192 207 220 199 195 221 222 214 177 173 295 308 308 308 305 307 302 297 285 294 295 299 294 288 276 269 266 282 289 289 309 309 229 193 196 121 148 173 135 232 255 253 58 75 81 63
163 168 167 163 170 167 165 168 164 170 161 165 167 169 166 164 166 167 166 169 164 160 156 152 157 155 158 160 160 160 170 180 190 191 174 196 206 218 208 219 221 236 180 222 197 225 245 217 262 274 297 297 295 306 303 302 297 270 263 297 305 310 329 329 299 279 282 296 306 306 333 194 175 104 134 158 147 136 204 174 73 79 75 74 75
169 162 166 168 168 167 166 173 168 170 162 165 170 174 171 171 170 168 165 168 170 158 156 160 161 161 162 166 168 170 178 184 193 191 192 197 213 220 221 227 229 230 203 234 212 198 222 214 247 263 262 274 287 282 297 297 303 291 290 296 303 326 334 353 330 347 347 347 326 316 336 288 110 143 148 147 126 149 166 112 93 80 78 79 79
161 168 169 168 169 164 173 172 169 167 162 173 172 176 174 178 172 166 167 168 169 159 164 165 166 172 166 168 168 174 179 189 189 184 189 195 198 214 226 227 241 233 215 237 197 208 197 208 220 235 242 267 280 277 285 290 296 314 334 328 314 341 359 1 7 5 2 335 329 309 301 290 147 129 120 124 137 157 133 104 87 85 83 83 80
169 171 169 165 166 171 171 172 166 165 169 177 173 175 176 177 169 171 169 168 164 168 168 174 176 176 170 172 173 175 175 186 185 184 186 183 196 208 218 216 236 233 210 221 223 204 202 212 221 224 236 252 295 299 286 316 315 305 328 299 302 32 348 354 342 337 332 340 328 332 8 50 118 129 141 137 144 144 113 96 99 98 97 92 85
165 167 167 164 169 168 168 171 164 168 176 177 176 176 169 174 172 173 171 167 166 166 175 181 179 177 176 174 177 179 184 183 187 186 184 185 196 209 214 218 227 222 203 206 212 206 205 220 236 237 266 284 312 299 350 359 305 296 290 320 23 38 304 322 300 256 262 289 348 358 48 99 127 137 135 146 152 147 107 106 107 107 109 101 85
161 165 163 168 165 163 167 167 166 174 179 171 178 173 171 174 171 172 173 168 173 171 184 184 179 178 177 176 181 186 185 190 181 185 179 184 198 210 218 228 224 212 188 183 205 201 213 214 235 240 293 268 301 326 337 299 282 278 351 356 17 358 5 352 329 0 22 26 33 87 95 103 117 125 145 154 154 102 101 102 104 107 103 94 89
161 163 169 165 164 165 166 172 170 174 177 177 178 180 169 176 171 178 175 175 174 179 188 186 182 179 170 177 184 185 186 185 189 187 187 191 199 211 217 229 214 192 193 198 197 202 197 226 185 238 320 331 7 288 274 226 206 49 2 327 23 11 47 349 323 340 52 54 44 72 91 108 134 119 118 73 65 84 90 88 93 94 91 89 88
169 165 163 163 164 166 167 172 175 176 177 175 175 183 169 175 175 178 179 180 182 189 191 187 179 170 175 182 186 185 183 187 192 195 195 193 203 214 224 225 210 189 203 193 180 197 200 226 227 180 218 266 233 255 215 149 60 8 331 332 357 44 45 3 18 23 17 70 58 68 93 94 82 78 73 76 75 76 82 85 81 78 80 80 75
164 165 165 164 165 165 169 175 178 178 177 173 177 180 181 177 182 184 183 186 188 194 190 177 176 181 182 183 183 187 189 188 192 194 199 199 203 219 231 223 200 196 197 191 200 197 182 217 230 205 188 201 200 206 111 79 43 337 341 352 1 15 30 3 351 5 14 71 50 47 82 72 75 77 75 83 86 85 78 79 76 74 72 72 73
167 164 164 165 168 166 171 178 179 178 176 176 176 185 180 183 182 189 191 193 194 192 180 174 186 186 179 188 187 188 189 191 191 187 196 205 205 212 229 221 191 190 196 173 225 188 193 188 218 199 199 191 195 164 167 122 356 3 4 5 358 15 1 13 13 29 57 79 55 62 59 56 67 73 87 88 88 88 82 76 74 72 70 69 67
160 162 161 165 165 167 171 180 180 177 177 175 172 183 183 183 187 191 194 197 197 189 171 177 186 186 192 194 186 187 190 189 187 181 190 200 200 214 225 218 178 188 188 185 192 177 176 192 188 195 219 226 193 182 167 163 88 37 29 4 6 5 340 42 32 56 61 73 80 72 59 56 73 85 88 89 88 87 86 82 71 68 69 67 64
156 160 162 167 167 167 173 179 181 179 176 175 172 180 187 189 191 194 197 198 193 190 179 185 184 195 203 194 188 188 186 183 185 180 184 185 193 205 215 184 170 171 177 178 186 179 185 185 195 176 184 159 54 127 118 117 91 71 41 22 28 24 44 35 45 42 53 49 74 73 74 75 82 88 89 91 88 86 85 81 75 70 65 64 60
157 162 165 172 172 172 175 181 180 178 178 178 180 184 189 188 192 196 196 189 191 189 187 191 196 203 205 197 186 187 185 180 184 182 185 182 185 194 189 169 171 172 178 197 196 194 189 187 177 185 169 152 135 96 104 119 105 60 20 39 31 26 35 41 43 29 31 41 55 68 80 83 90 91 93 92 92 89 85 78 78 73 65 60 55
170 167 174 176 173 175 180 181 177 179 184 183 181 186 193 193 189 188 182 181 187 192 193 199 203 207 207 197 190 188 185 182 183 188 189 187 187 184 184 183 173 182 193 203 200 197 179 170 159 148 91 164 188 191 186 111 37 140 110 12 7 356 45 44 39 27 24 34 48 74 77 96 100 100 96 91 86 90 87 82 76 73 64 58 57
167 174 173 169 176 181 185 182 178 180 184 183 181 186 185 183 183 182 184 176 185 192 201 202 201 206 206 200 192 190 183 181 181 181 184 191 194 184 191 182 182 176 173 190 194 202 191 189 184 179 168 40 114 121 113 93 149 137 112 98 24 52 351 17 21 38 27 35 44 75 87 98 99 97 99 96 95 89 84 82 80 73 68 64 56
170 170 175 179 181 185 186 181 179 182 182 183 183 184 179 181 185 169 175 182 190 194 203 201 206 206 211 202 197 188 182 174 170 174 186 191 189 188 182 183 185 172 170 180 192 202 194 196 194 198 158 161 177 119 73 142 138 141 106 56 193 134 71 10 31 28 27 46 36 55 91 103 104 97 84 98 100 92 85 85 81 80 72 68 66
179 180 179 183 186 185 184 180 178 182 183 181 183 179 179 171 159 154 160 152 104 179 191 208 205 207 211 198 202 180 172 163 166 182 190 192 184 177 177 183 168 163 163 182 195 203 196 195 190 182 187 174 186 170 79 88 119 102 138 114 55 159 202 192 122 39 5 40 30 66 86 92 100 99 98 94 93 90 94 87 88 83 79 79 74
183 186 183 183 180 183 182 181 179 181 181 184 182 175 177 169 165 168 174 185 192 189 200 200 196 203 211 191 177 169 161 160 175 190 189 170 174 176 175 168 160 161 176 191 200 200 206 199 197 192 199 201 161 156 113 33 75 86 139 163 169 175 169 205 100 108 49 52 50 55 63 73 93 104 100 108 101 102 100 100 93 90 87 84 77
190 177 179 182 182 184 184 181 181 180 181 184 181 177 176 177 180 181 181 192 200 209 194 193 193 203 191 186 181 156 157 165 186 184 172 171 173 178 180 177 171 176 184 181 191 198 197 207 199 192 204 177 142 160 158 150 91 51 56 76 85 80 140 138 189 119 95 24 37 42 50 63 80 94 100 101 104 102 97 104 101 102 97 81 68
178 173 179 180 184 185 182 182 181 180 180 183 182 180 178 177 182 186 190 194 200 198 183 188 185 183 189 193 155 151 158 174 177 176 171 176 176 182 183 179 177 185 181 191 197 198 190 193 190 212 190 184 179 164 163 161 153 153 44 62 70 75 74 84 127 155 139 131 84 69 55 68 83 86 92 108 109 111 115 108 111 110 107 90 80
172 180 182 184 181 181 180 181 182 180 182 181 182 185 182 178 185 193 199 202 194 187 168 170 183 184 188 154 142 152 164 169 169 172 179 181 182 184 184 184 183 187 192 196 200 182 187 186 188 191 199 206 229 132 148 175 150 160 126 49 70 62 62 61 91 91 139 122 108 130 118 82 79 59 56 69 85 97 110 120 123 122 118 105 96
181 177 174 173 178 178 182 183 184 182 180 181 183 185 183 182 190 198 198 194 182 157 156 172 187 178 180 167 160 158 169 167 168 174 180 189 187 186 188 190 192 188 193 197 191 189 191 187 103 55 42 27 359 316 236 173 166 153 160 152 126 103 58 57 42 92 57 71 152 164 153 146 131 86 65 92 109 113 121 119 109 106 109 116 108
167 171 175 178 177 181 182 185 183 179 179 180 180 186 186 188 196 198 198 191 176 161 163 177 177 162 172 171 167 173 175 180 168 181 188 188 191 190 192 198 192 192 192 188 189 184 151 119 131 134 160 172 162 174 253 160 145 149 158 163 164 168 167 171 190 192 135 125 105 140 154 102 140 133 148 134 130 122 118 116 127 133 155 148 113